Weather History for Stevensville, MD

Change the Weather History Date:

Friday, May 3, 2013

  Actual Average (KESN) Record (KESN)
Temperature  
Mean Temperature 54 °F -  
Max Temperature 62 °F 73 °F 89 °F (1965)
Min Temperature 46 °F 51 °F 37 °F (1960)
Degree Days  
Heating Degree Days 11    
Growing Degree Days 4 (Base 50)    
Moisture  
Dew Point 42 °F    
Average Humidity 64    
Maximum Humidity 87    
Minimum Humidity 39    
Precipitation  
Precipitation 0.00 in - - ()
Sea Level Pressure  
Sea Level Pressure 30.36 in    
Wind  
Wind Speed 7 mph (East)    
Max Wind Speed 15 mph    
Max Gust Speed 23 mph    
Visibility 10 miles    
Events      
Averages and records for this station are not official NWS values.
T = Trace of Precipitation, MM = Missing Value Source: NWS Daily Summary

Daily Weather History Graph

Daily Weather History Graph

Search for Another Location

Airport:

Trip Planner

Search our weather history database for the weather conditions in past years. The results will help you decide how hot, cold, wet, or windy it might be!

Date:

Astronomy

May. 03, 2013 Rise Set
Actual Time 6:04 AM EDT 8:00 PM EDT
Civil Twilight 5:35 AM EDT 8:29 PM EDT
Nautical Twilight 5:00 AM EDT 9:04 PM EDT
Astronomical Twilight 4:22 AM EDT 9:42 PM EDT
Moon 2:24 AM EDT (5/3) 1:55 PM EDT (5/3)
Length of Visible Light 14h 53m
Length of Day
13h 55m
Last Quarter, 37% of the Moon is Illuminated
May 3
Last Quarter
May 9
New
May 18
First Quarter
May 25
Full
May 31
Last Quarter

Hourly Weather History & Observations

Time (EDT) Temp. Windchill Dew Point Humidity Pressure Visibility Wind Dir Wind Speed Gust Speed Precip Events Conditions
12:05 AM 51.8 °F - 42.8 °F 71% 30.33 in 10.0 mi ESE 4.6 mph - N/A   Clear
12:25 AM 51.8 °F - 44.6 °F 76% 30.33 in 10.0 mi ESE 5.8 mph - N/A   Clear
12:45 AM 51.8 °F - 44.6 °F 76% 30.33 in 10.0 mi ESE 4.6 mph - N/A   Clear
1:05 AM 51.8 °F - 44.6 °F 76% 30.32 in 10.0 mi SE 4.6 mph - N/A   Clear
1:25 AM 51.8 °F - 44.6 °F 76% 30.33 in 10.0 mi Calm Calm - N/A   Clear
1:45 AM 50.0 °F - 44.6 °F 82% 30.33 in 10.0 mi Calm Calm - N/A   Clear
2:05 AM 50.0 °F - 44.6 °F 82% 30.33 in 10.0 mi ESE 3.5 mph - N/A   Clear
2:25 AM 50.0 °F - 44.6 °F 82% 30.33 in 10.0 mi East 3.5 mph - N/A   Clear
2:45 AM 50.0 °F - 44.6 °F 82% 30.32 in 10.0 mi East 3.5 mph - N/A   Clear
3:05 AM 50.0 °F - 44.6 °F 82% 30.33 in 10.0 mi ESE 3.5 mph - N/A   Clear
3:25 AM 48.2 °F - 42.8 °F 82% 30.33 in 10.0 mi ENE 4.6 mph - N/A   Clear
3:45 AM 48.2 °F - 42.8 °F 82% 30.33 in 10.0 mi East 5.8 mph - N/A   Clear
4:05 AM 50.0 °F - 42.8 °F 76% 30.33 in 10.0 mi East 5.8 mph - N/A   Clear
4:26 AM 50.0 °F - 44.6 °F 82% 30.33 in 10.0 mi East 5.8 mph - N/A   Clear
5:06 AM 50.0 °F - 46.4 °F 87% 30.33 in 10.0 mi East 9.2 mph - N/A   Clear
5:26 AM 50.0 °F - 46.4 °F 87% 30.34 in 10.0 mi East 10.4 mph - N/A   Clear
5:46 AM 50.0 °F - 46.4 °F 87% 30.34 in 10.0 mi East 9.2 mph - N/A   Clear
6:06 AM 50.0 °F - 46.4 °F 87% 30.35 in 10.0 mi East 9.2 mph - N/A   Clear
6:26 AM 50.0 °F - 46.4 °F 87% 30.36 in 10.0 mi East 10.4 mph - N/A   Clear
6:46 AM 50.0 °F - 44.6 °F 82% 30.36 in 10.0 mi East 10.4 mph - N/A   Clear
7:06 AM 51.8 °F - 44.6 °F 76% 30.37 in 10.0 mi East 8.1 mph - N/A   Clear
7:26 AM 51.8 °F - 44.6 °F 76% 30.37 in 10.0 mi ENE 6.9 mph - N/A   Clear
7:46 AM 53.6 °F - 44.6 °F 72% 30.38 in 10.0 mi ENE 8.1 mph - N/A   Clear
8:06 AM 53.6 °F - 44.6 °F 72% 30.38 in 10.0 mi ENE 6.9 mph - N/A   Clear
8:26 AM 53.6 °F - 44.6 °F 72% 30.38 in 10.0 mi ENE 8.1 mph - N/A   Clear
8:46 AM 55.4 °F - 44.6 °F 67% 30.38 in 10.0 mi NE 6.9 mph - N/A   Clear
9:06 AM 55.4 °F - 42.8 °F 63% 30.38 in 10.0 mi ENE 9.2 mph 17.3 mph N/A   Clear
9:26 AM 57.2 °F - 44.6 °F 63% 30.38 in 10.0 mi ENE 10.4 mph - N/A   Clear
9:46 AM 59.0 °F - 44.6 °F 59% 30.38 in 10.0 mi East 11.5 mph 18.4 mph N/A   Clear
10:06 AM 59.0 °F - 42.8 °F 55% 30.38 in 10.0 mi East 12.7 mph 17.3 mph N/A   Clear
10:26 AM 60.8 °F - 41.0 °F 48% 30.38 in 10.0 mi ENE 13.8 mph 20.7 mph N/A   Clear
10:46 AM 60.8 °F - 37.4 °F 42% 30.39 in 10.0 mi East 12.7 mph 21.9 mph N/A   Clear
11:06 AM 60.8 °F - 39.2 °F 45% 30.39 in 10.0 mi East 11.5 mph 20.7 mph N/A   Clear
11:26 AM 60.8 °F - 41.0 °F 48% 30.40 in 10.0 mi East 12.7 mph 20.7 mph N/A   Clear
11:46 AM 60.8 °F - 41.0 °F 48% 30.39 in 10.0 mi ENE 12.7 mph 18.4 mph N/A   Clear
12:06 PM 60.8 °F - 41.0 °F 48% 30.39 in 10.0 mi ENE 11.5 mph 16.1 mph N/A   Clear
12:26 PM 60.8 °F - 41.0 °F 48% 30.38 in 10.0 mi East 10.4 mph 17.3 mph N/A   Clear
12:47 PM 60.8 °F - 41.0 °F 48% 30.38 in 10.0 mi East 11.5 mph 18.4 mph N/A   Clear
1:07 PM 60.8 °F - 39.2 °F 45% 30.38 in 10.0 mi East 15.0 mph 20.7 mph N/A   Clear
1:27 PM 60.8 °F - 39.2 °F 45% 30.38 in 10.0 mi East 12.7 mph 19.6 mph N/A   Clear
1:47 PM 60.8 °F - 37.4 °F 42% 30.38 in 10.0 mi East 11.5 mph 18.4 mph N/A   Clear
2:07 PM 60.8 °F - 37.4 °F 42% 30.38 in 10.0 mi East 8.1 mph 20.7 mph N/A   Clear
2:27 PM 60.8 °F - 37.4 °F 42% 30.38 in 10.0 mi ESE 11.5 mph 17.3 mph N/A   Clear
2:47 PM 60.8 °F - 37.4 °F 42% 30.38 in 10.0 mi ESE 10.4 mph 20.7 mph N/A   Clear
3:07 PM 62.6 °F - 37.4 °F 39% 30.37 in 10.0 mi ESE 10.4 mph 17.3 mph N/A   Clear
3:27 PM 62.6 °F - 37.4 °F 39% 30.37 in 10.0 mi East 11.5 mph 23.0 mph N/A   Clear
3:47 PM 60.8 °F - 37.4 °F 42% 30.36 in 10.0 mi ESE 12.7 mph 16.1 mph N/A   Clear
4:07 PM 60.8 °F - 39.2 °F 45% 30.36 in 10.0 mi East 11.5 mph - N/A   Clear
4:27 PM 60.8 °F - 39.2 °F 45% 30.35 in 10.0 mi ESE 15.0 mph - N/A   Clear
4:47 PM 60.8 °F - 39.2 °F 45% 30.35 in 10.0 mi East 11.5 mph 16.1 mph N/A   Clear
5:27 PM 60.8 °F - 37.4 °F 42% 30.35 in 10.0 mi SE 12.7 mph 16.1 mph N/A   Clear
5:47 PM 59.0 °F - 39.2 °F 48% 30.35 in 10.0 mi SE 9.2 mph - N/A   Clear
6:07 PM 59.0 °F - 37.4 °F 45% 30.35 in 10.0 mi East 10.4 mph - N/A   Clear
6:27 PM 59.0 °F - 39.2 °F 48% 30.35 in 10.0 mi ESE 10.4 mph - N/A   Clear
6:47 PM 57.2 °F - 39.2 °F 51% 30.35 in 10.0 mi ESE 12.7 mph 16.1 mph N/A   Clear
7:07 PM 55.4 °F - 39.2 °F 54% 30.36 in 10.0 mi ESE 12.7 mph 16.1 mph N/A   Clear
7:27 PM 55.4 °F - 41.0 °F 58% 30.36 in 10.0 mi ESE 10.4 mph - N/A   Clear
7:47 PM 53.6 °F - 39.2 °F 58% 30.37 in 10.0 mi ESE 8.1 mph - N/A   Clear
8:07 PM 51.8 °F - 39.2 °F 62% 30.36 in 10.0 mi ESE 10.4 mph - N/A   Clear
8:27 PM 51.8 °F - 41.0 °F 67% 30.36 in 10.0 mi ESE 9.2 mph - N/A   Clear
8:47 PM 51.8 °F - 41.0 °F 67% 30.36 in 10.0 mi ESE 8.1 mph - N/A   Clear
9:07 PM 50.0 °F - 41.0 °F 71% 30.37 in 10.0 mi ESE 5.8 mph - N/A   Clear
9:28 PM 50.0 °F - 41.0 °F 71% 30.37 in 10.0 mi ESE 5.8 mph - N/A   Clear
9:48 PM 50.0 °F - 41.0 °F 71% 30.37 in 10.0 mi ESE 5.8 mph - N/A   Clear
10:28 PM 50.0 °F - 41.0 °F 71% 30.36 in 10.0 mi East 5.8 mph - N/A   Clear
10:48 PM 48.2 °F - 41.0 °F 76% 30.36 in 10.0 mi ESE 5.8 mph - N/A   Clear
11:08 PM 46.4 °F 45.2 °F 41.0 °F 81% 30.36 in 10.0 mi East 3.5 mph - N/A   Clear
11:28 PM 48.2 °F - 41.0 °F 76% 30.36 in 10.0 mi East 8.1 mph - N/A   Clear
11:48 PM 46.4 °F 43.5 °F 42.8 °F 87% 30.36 in 10.0 mi East 5.8 mph - N/A   Clear